Wetterdaten: Donnerstag, 03.03.2016
Datum Zeit Temperatur Luftfeuchte Luftdruck Regen Wind Richtung Richtung Sonnenschein ET UV Solar Taupunkt Windchill Windben
03.03.2016 00:00 2,4 C 88 % 999,0 hPa 0,0 l/m 5,2 km/h (1 Bft) W-SW 256 0 min 0,000 mm 0,0 UV-I 0 W/m 0,6 C 2,4 C 11,3 km/h (2 Bft)
03.03.2016 00:05 2,4 C 88 % 999,0 hPa 0,0 l/m 3,9 km/h (1 Bft) W 261 0 min 0,000 mm 0,0 UV-I 0 W/m 0,6 C 2,4 C 11,3 km/h (2 Bft)
03.03.2016 00:10 2,3 C 88 % 998,9 hPa 0,0 l/m 4,2 km/h (1 Bft) W-SW 244 0 min 0,000 mm 0,0 UV-I 0 W/m 0,5 C 2,3 C 9,7 km/h (2 Bft)
03.03.2016 00:15 2,3 C 87 % 998,9 hPa 0,0 l/m 1,9 km/h (1 Bft) W-NW 288 0 min 0,000 mm 0,0 UV-I 0 W/m 0,4 C 2,3 C 11,3 km/h (2 Bft)
03.03.2016 00:20 2,3 C 87 % 998,9 hPa 0,0 l/m 2,3 km/h (1 Bft) S-SW 197 0 min 0,000 mm 0,0 UV-I 0 W/m 0,4 C 2,3 C 14,5 km/h (3 Bft)
03.03.2016 00:25 2,3 C 87 % 998,9 hPa 0,0 l/m 2,8 km/h (1 Bft) S 173 0 min 0,000 mm 0,0 UV-I 0 W/m 0,4 C 2,3 C 16,1 km/h (3 Bft)
03.03.2016 00:30 2,3 C 87 % 999,0 hPa 0,0 l/m 3,9 km/h (1 Bft) S 175 0 min 0,000 mm 0,0 UV-I 0 W/m 0,4 C 2,3 C 14,5 km/h (3 Bft)
03.03.2016 00:35 2,3 C 88 % 999,0 hPa 0,0 l/m 1,5 km/h (1 Bft) W-SW 247 0 min 0,000 mm 0,0 UV-I 0 W/m 0,5 C 2,3 C 11,3 km/h (2 Bft)
03.03.2016 00:40 2,2 C 89 % 999,0 hPa 0,0 l/m 1,0 km/h (0 Bft) S-SW 203 0 min 0,000 mm 0,0 UV-I 0 W/m 0,6 C 2,2 C 11,3 km/h (2 Bft)
03.03.2016 00:45 2,2 C 89 % 999,0 hPa 0,0 l/m 1,7 km/h (1 Bft) W-SW 248 0 min 0,000 mm 0,0 UV-I 0 W/m 0,6 C 2,2 C 11,3 km/h (2 Bft)
03.03.2016 00:50 2,1 C 90 % 999,0 hPa 0,0 l/m 2,6 km/h (1 Bft) SW 232 0 min 0,000 mm 0,0 UV-I 0 W/m 0,6 C 2,1 C 11,3 km/h (2 Bft)
03.03.2016 00:55 2,1 C 90 % 998,9 hPa 0,0 l/m 2,4 km/h (1 Bft) SW 234 0 min 0,000 mm 0,0 UV-I 0 W/m 0,6 C 2,1 C 14,5 km/h (3 Bft)
03.03.2016 01:00 2,1 C 90 % 999,0 hPa 0,0 l/m 1,2 km/h (1 Bft) SW 229 0 min 0,000 mm 0,0 UV-I 0 W/m 0,6 C 2,1 C 8,0 km/h (2 Bft)
03.03.2016 01:05 2,1 C 90 % 998,9 hPa 0,0 l/m 0,4 km/h (0 Bft) S-SW 194 0 min 0,000 mm 0,0 UV-I 0 W/m 0,6 C 2,1 C 6,4 km/h (2 Bft)
03.03.2016 01:10 2,1 C 90 % 998,9 hPa 0,0 l/m 1,5 km/h (1 Bft) S-SW 207 0 min 0,000 mm 0,0 UV-I 0 W/m 0,6 C 2,1 C 12,9 km/h (3 Bft)
03.03.2016 01:15 2,1 C 90 % 998,9 hPa 0,0 l/m 3,9 km/h (1 Bft) S-SW 212 0 min 0,000 mm 0,0 UV-I 0 W/m 0,6 C 2,1 C 16,1 km/h (3 Bft)
03.03.2016 01:20 2,1 C 90 % 999,0 hPa 0,0 l/m 2,5 km/h (1 Bft) S-SO 147 0 min 0,000 mm 0,0 UV-I 0 W/m 0,6 C 2,1 C 12,9 km/h (3 Bft)
03.03.2016 01:25 2,2 C 89 % 999,0 hPa 0,0 l/m 4,9 km/h (1 Bft) S 187 0 min 0,000 mm 0,0 UV-I 0 W/m 0,6 C 2,2 C 17,7 km/h (3 Bft)
03.03.2016 01:30 2,2 C 89 % 999,0 hPa 0,0 l/m 7,0 km/h (2 Bft) S-SO 168 0 min 0,000 mm 0,0 UV-I 0 W/m 0,6 C 1,6 C 14,5 km/h (3 Bft)
03.03.2016 01:35 2,2 C 89 % 999,0 hPa 0,0 l/m 5,5 km/h (1 Bft) S-SW 200 0 min 0,000 mm 0,0 UV-I 0 W/m 0,6 C 2,2 C 17,7 km/h (3 Bft)
03.03.2016 01:40 2,1 C 89 % 999,0 hPa 0,0 l/m 6,0 km/h (2 Bft) S-SO 166 0 min 0,000 mm 0,0 UV-I 0 W/m 0,5 C 2,1 C 11,3 km/h (2 Bft)
03.03.2016 01:45 2,1 C 90 % 999,1 hPa 0,0 l/m 6,8 km/h (2 Bft) S 180 0 min 0,000 mm 0,0 UV-I 0 W/m 0,6 C 1,7 C 12,9 km/h (3 Bft)
03.03.2016 01:50 2,1 C 90 % 999,0 hPa 0,0 l/m 7,9 km/h (2 Bft) S-SO 158 0 min 0,000 mm 0,0 UV-I 0 W/m 0,6 C 0,7 C 19,3 km/h (3 Bft)
03.03.2016 01:55 2,0 C 90 % 999,1 hPa 0,0 l/m 2,0 km/h (1 Bft) S 185 0 min 0,000 mm 0,0 UV-I 0 W/m 0,5 C 2,0 C 9,7 km/h (2 Bft)
03.03.2016 02:00 2,0 C 90 % 999,2 hPa 0,0 l/m 1,0 km/h (0 Bft) S 173 0 min 0,000 mm 0,0 UV-I 0 W/m 0,5 C 2,0 C 9,7 km/h (2 Bft)
03.03.2016 02:05 1,9 C 90 % 999,3 hPa 0,0 l/m 2,5 km/h (1 Bft) SO 138 0 min 0,000 mm 0,0 UV-I 0 W/m 0,4 C 1,9 C 11,3 km/h (2 Bft)
03.03.2016 02:10 1,9 C 90 % 999,2 hPa 0,0 l/m 3,8 km/h (1 Bft) SO 125 0 min 0,000 mm 0,0 UV-I 0 W/m 0,4 C 1,9 C 14,5 km/h (3 Bft)
03.03.2016 02:15 1,9 C 90 % 999,3 hPa 0,0 l/m 6,3 km/h (2 Bft) SO 134 0 min 0,000 mm 0,0 UV-I 0 W/m 0,4 C 1,9 C 12,9 km/h (3 Bft)
03.03.2016 02:20 1,8 C 90 % 999,4 hPa 0,0 l/m 4,2 km/h (1 Bft) S-SO 157 0 min 0,000 mm 0,0 UV-I 0 W/m 0,3 C 1,8 C 11,3 km/h (2 Bft)
03.03.2016 02:25 1,8 C 90 % 999,4 hPa 0,0 l/m 10,0 km/h (2 Bft) SO 134 0 min 0,000 mm 0,0 UV-I 0 W/m 0,3 C -1,5 C 20,9 km/h (4 Bft)
03.03.2016 02:30 1,8 C 90 % 999,2 hPa 0,0 l/m 8,0 km/h (2 Bft) S 171 0 min 0,000 mm 0,0 UV-I 0 W/m 0,3 C 0,2 C 17,7 km/h (3 Bft)
03.03.2016 02:35 1,8 C 90 % 999,3 hPa 0,0 l/m 9,2 km/h (2 Bft) S-SO 165 0 min 0,000 mm 0,0 UV-I 0 W/m 0,3 C -0,8 C 19,3 km/h (3 Bft)
03.03.2016 02:40 1,8 C 90 % 999,2 hPa 0,0 l/m 8,5 km/h (2 Bft) S-SO 166 0 min 0,000 mm 0,0 UV-I 0 W/m 0,3 C -0,2 C 16,1 km/h (3 Bft)
03.03.2016 02:45 1,8 C 89 % 999,1 hPa 0,0 l/m 9,1 km/h (2 Bft) S 181 0 min 0,000 mm 0,0 UV-I 0 W/m 0,2 C -0,7 C 17,7 km/h (3 Bft)
03.03.2016 02:50 1,8 C 89 % 999,1 hPa 0,0 l/m 10,4 km/h (2 Bft) SO 144 0 min 0,000 mm 0,0 UV-I 0 W/m 0,2 C -1,8 C 19,3 km/h (3 Bft)
03.03.2016 02:55 1,8 C 89 % 999,1 hPa 0,0 l/m 7,9 km/h (2 Bft) S-SW 201 0 min 0,000 mm 0,0 UV-I 0 W/m 0,2 C 0,3 C 19,3 km/h (3 Bft)
03.03.2016 03:00 1,8 C 88 % 999,1 hPa 0,0 l/m 7,2 km/h (2 Bft) SW 224 0 min 0,000 mm 0,0 UV-I 0 W/m 0,0 C 1,0 C 19,3 km/h (3 Bft)
03.03.2016 03:05 1,8 C 88 % 999,2 hPa 0,0 l/m 2,7 km/h (1 Bft) SO 126 0 min 0,000 mm 0,0 UV-I 0 W/m 0,0 C 1,8 C 8,0 km/h (2 Bft)
03.03.2016 03:10 1,8 C 88 % 999,1 hPa 0,0 l/m 4,5 km/h (1 Bft) S 184 0 min 0,000 mm 0,0 UV-I 0 W/m 0,0 C 1,8 C 17,7 km/h (3 Bft)
03.03.2016 03:15 1,8 C 88 % 999,1 hPa 0,0 l/m 5,6 km/h (1 Bft) S-SW 200 0 min 0,000 mm 0,0 UV-I 0 W/m 0,0 C 1,8 C 17,7 km/h (3 Bft)
03.03.2016 03:20 1,8 C 88 % 999,2 hPa 0,0 l/m 6,7 km/h (2 Bft) SW 222 0 min 0,000 mm 0,0 UV-I 0 W/m 0,0 C 1,5 C 20,9 km/h (4 Bft)
03.03.2016 03:25 1,9 C 88 % 999,3 hPa 0,0 l/m 4,1 km/h (1 Bft) S 173 0 min 0,000 mm 0,0 UV-I 0 W/m 0,1 C 1,9 C 11,3 km/h (2 Bft)
03.03.2016 03:30 1,9 C 87 % 999,3 hPa 0,0 l/m 8,4 km/h (2 Bft) NW 309 0 min 0,000 mm 0,0 UV-I 0 W/m -0,0 C -0,0 C 22,5 km/h (4 Bft)
03.03.2016 03:35 1,9 C 87 % 999,4 hPa 0,0 l/m 8,0 km/h (2 Bft) S-SW 202 0 min 0,000 mm 0,0 UV-I 0 W/m -0,0 C 0,3 C 22,5 km/h (4 Bft)
03.03.2016 03:40 1,9 C 87 % 999,5 hPa 0,0 l/m 3,0 km/h (1 Bft) S 186 0 min 0,000 mm 0,0 UV-I 0 W/m -0,0 C 1,9 C 12,9 km/h (3 Bft)
03.03.2016 03:45 2,0 C 86 % 999,6 hPa 0,0 l/m 9,9 km/h (2 Bft) S-SW 202 0 min 0,000 mm 0,0 UV-I 0 W/m -0,1 C -1,2 C 24,1 km/h (4 Bft)
03.03.2016 03:50 2,0 C 86 % 999,5 hPa 0,0 l/m 9,0 km/h (2 Bft) S-SW 199 0 min 0,000 mm 0,0 UV-I 0 W/m -0,1 C -0,4 C 19,3 km/h (3 Bft)
03.03.2016 03:55 2,1 C 86 % 999,6 hPa 0,0 l/m 7,4 km/h (2 Bft) SO 146 0 min 0,000 mm 0,0 UV-I 0 W/m 0,0 C 1,1 C 17,7 km/h (3 Bft)
03.03.2016 04:00 2,1 C 86 % 999,7 hPa 0,0 l/m 7,4 km/h (2 Bft) SW 227 0 min 0,000 mm 0,0 UV-I 0 W/m 0,0 C 1,1 C 17,7 km/h (3 Bft)
03.03.2016 04:05 2,1 C 86 % 999,7 hPa 0,0 l/m 8,4 km/h (2 Bft) SW 217 0 min 0,000 mm 0,0 UV-I 0 W/m 0,0 C 0,2 C 17,7 km/h (3 Bft)
03.03.2016 04:10 2,1 C 86 % 999,8 hPa 0,0 l/m 7,8 km/h (2 Bft) S 186 0 min 0,000 mm 0,0 UV-I 0 W/m 0,0 C 0,7 C 22,5 km/h (4 Bft)
03.03.2016 04:15 2,1 C 86 % 999,7 hPa 0,0 l/m 8,3 km/h (2 Bft) S-SW 192 0 min 0,000 mm 0,0 UV-I 0 W/m 0,0 C 0,3 C 17,7 km/h (3 Bft)
03.03.2016 04:20 2,1 C 86 % 999,7 hPa 0,0 l/m 10,4 km/h (2 Bft) S-SW 202 0 min 0,000 mm 0,0 UV-I 0 W/m 0,0 C -1,4 C 22,5 km/h (4 Bft)
03.03.2016 04:25 2,1 C 86 % 999,8 hPa 0,0 l/m 6,0 km/h (2 Bft) S 188 0 min 0,000 mm 0,0 UV-I 0 W/m 0,0 C 2,1 C 16,1 km/h (3 Bft)
03.03.2016 04:30 2,0 C 86 % 999,8 hPa 0,0 l/m 6,1 km/h (2 Bft) SW 219 0 min 0,000 mm 0,0 UV-I 0 W/m -0,1 C 2,0 C 17,7 km/h (3 Bft)
03.03.2016 04:35 2,0 C 86 % 999,9 hPa 0,0 l/m 7,4 km/h (2 Bft) S-SW 211 0 min 0,000 mm 0,0 UV-I 0 W/m -0,1 C 1,0 C 20,9 km/h (4 Bft)
03.03.2016 04:40 2,0 C 86 % 999,8 hPa 0,0 l/m 5,5 km/h (1 Bft) W-SW 249 0 min 0,000 mm 0,0 UV-I 0 W/m -0,1 C 2,0 C 17,7 km/h (3 Bft)
03.03.2016 04:45 2,0 C 86 % 999,9 hPa 0,0 l/m 5,2 km/h (1 Bft) SW 224 0 min 0,000 mm 0,0 UV-I 0 W/m -0,1 C 2,0 C 12,9 km/h (3 Bft)
03.03.2016 04:50 2,0 C 86 % 999,8 hPa 0,0 l/m 6,5 km/h (2 Bft) SW 231 0 min 0,000 mm 0,0 UV-I 0 W/m -0,1 C 1,9 C 20,9 km/h (4 Bft)
03.03.2016 04:55 2,0 C 87 % 999,8 hPa 0,0 l/m 5,2 km/h (1 Bft) S 186 0 min 0,000 mm 0,0 UV-I 0 W/m 0,1 C 2,0 C 19,3 km/h (3 Bft)
03.03.2016 05:00 2,0 C 86 % 999,8 hPa 0,0 l/m 5,2 km/h (1 Bft) S-SO 150 0 min 0,000 mm 0,0 UV-I 0 W/m -0,1 C 2,0 C 12,9 km/h (3 Bft)
03.03.2016 05:05 2,0 C 87 % 999,8 hPa 0,0 l/m 5,8 km/h (2 Bft) SW 231 0 min 0,000 mm 0,0 UV-I 0 W/m 0,1 C 2,0 C 14,5 km/h (3 Bft)
03.03.2016 05:10 1,9 C 87 % 999,8 hPa 0,0 l/m 3,5 km/h (1 Bft) SW 234 0 min 0,000 mm 0,0 UV-I 0 W/m -0,0 C 1,9 C 11,3 km/h (2 Bft)
03.03.2016 05:15 1,9 C 87 % 999,8 hPa 0,0 l/m 2,5 km/h (1 Bft) S 173 0 min 0,000 mm 0,0 UV-I 0 W/m -0,0 C 1,9 C 11,3 km/h (2 Bft)
03.03.2016 05:20 1,9 C 87 % 999,9 hPa 0,0 l/m 3,9 km/h (1 Bft) S 174 0 min 0,000 mm 0,0 UV-I 0 W/m -0,0 C 1,9 C 14,5 km/h (3 Bft)
03.03.2016 05:25 1,9 C 87 % 999,9 hPa 0,0 l/m 1,8 km/h (1 Bft) S-SO 161 0 min 0,000 mm 0,0 UV-I 0 W/m -0,0 C 1,9 C 11,3 km/h (2 Bft)
03.03.2016 05:30 1,9 C 87 % 999,9 hPa 0,0 l/m 3,4 km/h (1 Bft) S 188 0 min 0,000 mm 0,0 UV-I 0 W/m -0,0 C 1,9 C 12,9 km/h (3 Bft)
03.03.2016 05:35 1,8 C 88 % 999,9 hPa 0,0 l/m 3,3 km/h (1 Bft) SW 232 0 min 0,000 mm 0,0 UV-I 0 W/m 0,0 C 1,8 C 11,3 km/h (2 Bft)
03.03.2016 05:40 1,8 C 88 % 999,9 hPa 0,0 l/m 2,7 km/h (1 Bft) S-SW 204 0 min 0,000 mm 0,0 UV-I 0 W/m 0,0 C 1,8 C 16,1 km/h (3 Bft)
03.03.2016 05:45 1,8 C 88 % 999,8 hPa 0,0 l/m 5,0 km/h (1 Bft) S-SW 208 0 min 0,000 mm 0,0 UV-I 0 W/m 0,0 C 1,8 C 14,5 km/h (3 Bft)
03.03.2016 05:50 1,8 C 88 % 999,8 hPa 0,0 l/m 2,5 km/h (1 Bft) W-SW 246 0 min 0,000 mm 0,0 UV-I 0 W/m 0,0 C 1,8 C 9,7 km/h (2 Bft)
03.03.2016 05:55 1,8 C 88 % 999,8 hPa 0,0 l/m 4,4 km/h (1 Bft) S 182 0 min 0,000 mm 0,0 UV-I 0 W/m 0,0 C 1,8 C 14,5 km/h (3 Bft)
03.03.2016 06:00 1,8 C 88 % 999,8 hPa 0,0 l/m 2,8 km/h (1 Bft) S 182 0 min 0,000 mm 0,0 UV-I 0 W/m 0,0 C 1,8 C 11,3 km/h (2 Bft)
03.03.2016 06:05 1,8 C 88 % 999,7 hPa 0,0 l/m 0,8 km/h (0 Bft) S 184 0 min 0,000 mm 0,0 UV-I 0 W/m 0,0 C 1,8 C 6,4 km/h (2 Bft)
03.03.2016 06:10 1,7 C 88 % 999,7 hPa 0,0 l/m 3,1 km/h (1 Bft) S-SW 213 0 min 0,000 mm 0,0 UV-I 0 W/m -0,1 C 1,7 C 9,7 km/h (2 Bft)
03.03.2016 06:15 1,7 C 88 % 999,8 hPa 0,0 l/m 0,2 km/h (0 Bft) S 184 0 min 0,000 mm 0,0 UV-I 0 W/m -0,1 C 1,7 C 3,2 km/h (1 Bft)
03.03.2016 06:20 1,7 C 88 % 999,8 hPa 0,0 l/m 3,6 km/h (1 Bft) W-SW 247 0 min 0,000 mm 0,0 UV-I 0 W/m -0,1 C 1,7 C 11,3 km/h (2 Bft)
03.03.2016 06:25 1,7 C 88 % 999,8 hPa 0,0 l/m 2,2 km/h (1 Bft) W-SW 254 0 min 0,000 mm 0,0 UV-I 0 W/m -0,1 C 1,7 C 11,3 km/h (2 Bft)
03.03.2016 06:30 1,7 C 88 % 999,9 hPa 0,0 l/m 0,7 km/h (0 Bft) S-SW 194 0 min 0,000 mm 0,0 UV-I 0 W/m -0,1 C 1,7 C 8,0 km/h (2 Bft)
03.03.2016 06:35 1,7 C 88 % 999,9 hPa 0,0 l/m 0,6 km/h (0 Bft) W-SW 255 0 min 0,000 mm 0,0 UV-I 0 W/m -0,1 C 1,7 C 8,0 km/h (2 Bft)
03.03.2016 06:40 1,7 C 88 % 999,9 hPa 0,0 l/m 2,2 km/h (1 Bft) SW 230 0 min 0,000 mm 0,0 UV-I 0 W/m -0,1 C 1,7 C 9,7 km/h (2 Bft)
03.03.2016 06:45 1,7 C 88 % 999,9 hPa 0,0 l/m 2,0 km/h (1 Bft) S 180 0 min 0,000 mm 0,0 UV-I 0 W/m -0,1 C 1,7 C 12,9 km/h (3 Bft)
03.03.2016 06:50 1,7 C 88 % 999,9 hPa 0,0 l/m 0,4 km/h (0 Bft) S 188 0 min 0,000 mm 0,0 UV-I 0 W/m -0,1 C 1,7 C 6,4 km/h (2 Bft)
03.03.2016 06:55 1,7 C 88 % 999,9 hPa 0,0 l/m 1,1 km/h (1 Bft) S-SW 198 0 min 0,000 mm 0,0 UV-I 0 W/m -0,1 C 1,7 C 8,0 km/h (2 Bft)
03.03.2016 07:00 1,7 C 88 % 999,9 hPa 0,0 l/m 3,1 km/h (1 Bft) S 178 0 min 0,000 mm 0,0 UV-I 0 W/m -0,1 C 1,7 C 12,9 km/h (3 Bft)
03.03.2016 07:05 1,7 C 88 % 999,9 hPa 0,0 l/m 1,4 km/h (1 Bft) SO 144 0 min 0,000 mm 0,0 UV-I 0 W/m -0,1 C 1,7 C 8,0 km/h (2 Bft)
03.03.2016 07:10 1,6 C 88 % 1000,0 hPa 0,0 l/m 1,9 km/h (1 Bft) S-SW 194 0 min 0,000 mm 0,0 UV-I 0 W/m -0,2 C 1,6 C 11,3 km/h (2 Bft)
03.03.2016 07:15 1,6 C 88 % 999,9 hPa 0,0 l/m 3,1 km/h (1 Bft) SW 222 0 min 0,000 mm 0,0 UV-I 2 W/m -0,2 C 1,6 C 12,9 km/h (3 Bft)
03.03.2016 07:20 1,5 C 88 % 999,9 hPa 0,0 l/m 0,4 km/h (0 Bft) S 172 0 min 0,000 mm 0,0 UV-I 5 W/m -0,3 C 1,5 C 6,4 km/h (2 Bft)
03.03.2016 07:25 1,4 C 88 % 1000,0 hPa 0,0 l/m 1,1 km/h (1 Bft) S-SW 201 0 min 0,000 mm 0,0 UV-I 7 W/m -0,4 C 1,4 C 6,4 km/h (2 Bft)
03.03.2016 07:30 1,4 C 88 % 1000,0 hPa 0,0 l/m 0,1 km/h (0 Bft) SW 217 0 min 0,000 mm 0,0 UV-I 10 W/m -0,4 C 1,4 C 1,6 km/h (1 Bft)
03.03.2016 07:35 1,3 C 88 % 1000,1 hPa 0,0 l/m 0,8 km/h (0 Bft) S 186 0 min 0,000 mm 0,0 UV-I 12 W/m -0,5 C 1,3 C 4,8 km/h (1 Bft)
03.03.2016 07:40 1,3 C 88 % 1000,1 hPa 0,0 l/m 1,8 km/h (1 Bft) W-SW 244 0 min 0,000 mm 0,0 UV-I 14 W/m -0,5 C 1,3 C 11,3 km/h (2 Bft)
03.03.2016 07:45 1,3 C 88 % 1000,0 hPa 0,0 l/m 0,6 km/h (0 Bft) W-SW 250 0 min 0,000 mm 0,0 UV-I 28 W/m -0,5 C 1,3 C 6,4 km/h (2 Bft)
03.03.2016 07:50 1,3 C 88 % 1000,0 hPa 0,0 l/m 1,2 km/h (1 Bft) SW 223 0 min 0,000 mm 0,0 UV-I 47 W/m -0,5 C 1,3 C 8,0 km/h (2 Bft)
03.03.2016 07:55 1,4 C 88 % 999,9 hPa 0,0 l/m 0,4 km/h (0 Bft) S-SW 207 0 min 0,000 mm 0,0 UV-I 58 W/m -0,4 C 1,4 C 6,4 km/h (2 Bft)
03.03.2016 08:00 1,5 C 87 % 1000,1 hPa 0,0 l/m 0,3 km/h (0 Bft) S-SW 202 0 min 0,000 mm 0,0 UV-I 70 W/m -0,4 C 1,5 C 6,4 km/h (2 Bft)
03.03.2016 08:05 1,6 C 87 % 1000,1 hPa 0,0 l/m 1,0 km/h (0 Bft) S-SW 200 5 min 0,000 mm 0,0 UV-I 83 W/m -0,3 C 1,6 C 14,5 km/h (3 Bft)
03.03.2016 08:10 1,7 C 86 % 1000,0 hPa 0,0 l/m 1,7 km/h (1 Bft) SW 236 5 min 0,000 mm 0,0 UV-I 94 W/m -0,4 C 1,7 C 9,7 km/h (2 Bft)
03.03.2016 08:15 1,8 C 86 % 1000,0 hPa 0,0 l/m 0,0 km/h (0 Bft) SW 229 5 min 0,000 mm 0,0 UV-I 108 W/m -0,3 C 1,8 C 1,6 km/h (1 Bft)
03.03.2016 08:20 2,1 C 86 % 1000,1 hPa 0,0 l/m 0,0 km/h (0 Bft) S-SW 192 5 min 0,000 mm 0,0 UV-I 125 W/m 0,0 C 2,1 C 0,0 km/h (0 Bft)
03.03.2016 08:25 2,3 C 85 % 1000,1 hPa 0,0 l/m 0,0 km/h (0 Bft) S 191 5 min 0,000 mm 0,0 UV-I 142 W/m 0,0 C 2,3 C 0,0 km/h (0 Bft)
03.03.2016 08:30 2,7 C 84 % 1000,1 hPa 0,0 l/m 0,0 km/h (0 Bft) S 191 5 min 0,000 mm 0,0 UV-I 158 W/m 0,3 C 2,7 C 0,0 km/h (0 Bft)
03.03.2016 08:35 2,8 C 83 % 1000,1 hPa 0,0 l/m 0,0 km/h (0 Bft) S-SW 193 5 min 0,000 mm 0,1 UV-I 184 W/m 0,2 C 2,8 C 0,0 km/h (0 Bft)
03.03.2016 08:40 3,5 C 82 % 1000,2 hPa 0,0 l/m 0,0 km/h (0 Bft) SO 129 5 min 0,000 mm 0,5 UV-I 201 W/m 0,7 C 3,5 C 0,0 km/h (0 Bft)
03.03.2016 08:45 3,0 C 80 % 1000,1 hPa 0,0 l/m 0,1 km/h (0 Bft) S-SO 159 5 min 0,000 mm 0,5 UV-I 223 W/m -0,1 C 3,0 C 1,6 km/h (1 Bft)
03.03.2016 08:50 3,1 C 82 % 1000,1 hPa 0,0 l/m 1,0 km/h (0 Bft) O-NO 57 5 min 0,000 mm 0,5 UV-I 244 W/m 0,3 C 3,1 C 9,7 km/h (2 Bft)
03.03.2016 08:55 3,0 C 81 % 1000,1 hPa 0,0 l/m 2,5 km/h (1 Bft) NW 309 5 min 0,000 mm 0,6 UV-I 250 W/m 0,1 C 3,0 C 11,3 km/h (2 Bft)
03.03.2016 09:00 3,0 C 82 % 1000,1 hPa 0,0 l/m 1,2 km/h (1 Bft) S-SO 165 5 min 0,000 mm 0,6 UV-I 272 W/m 0,2 C 3,0 C 11,3 km/h (2 Bft)
03.03.2016 09:05 2,9 C 80 % 1000,1 hPa 0,0 l/m 0,4 km/h (0 Bft) W-SW 257 0 min 0,076 mm 0,6 UV-I 144 W/m -0,2 C 2,9 C 1,6 km/h (1 Bft)
03.03.2016 09:10 2,7 C 81 % 1000,0 hPa 0,0 l/m 2,7 km/h (1 Bft) NW 309 0 min 0,000 mm 0,6 UV-I 142 W/m -0,2 C 2,7 C 11,3 km/h (2 Bft)
03.03.2016 09:15 2,7 C 81 % 999,9 hPa 0,0 l/m 2,6 km/h (1 Bft) S-SW 209 0 min 0,000 mm 0,7 UV-I 157 W/m -0,2 C 2,7 C 12,9 km/h (3 Bft)
03.03.2016 09:20 3,0 C 79 % 1000,0 hPa 0,0 l/m 2,1 km/h (1 Bft) SW 234 5 min 0,000 mm 0,8 UV-I 298 W/m -0,3 C 3,0 C 12,9 km/h (3 Bft)
03.03.2016 09:25 3,4 C 79 % 1000,0 hPa 0,0 l/m 5,1 km/h (1 Bft) S-SW 207 5 min 0,000 mm 0,8 UV-I 356 W/m 0,1 C 3,4 C 14,5 km/h (3 Bft)
03.03.2016 09:30 3,4 C 78 % 999,9 hPa 0,0 l/m 2,4 km/h (1 Bft) SW 228 5 min 0,000 mm 0,7 UV-I 203 W/m -0,1 C 3,4 C 12,9 km/h (3 Bft)
03.03.2016 09:35 3,3 C 78 % 999,9 hPa 0,0 l/m 3,8 km/h (1 Bft) SW 225 5 min 0,000 mm 0,7 UV-I 202 W/m -0,2 C 3,3 C 11,3 km/h (2 Bft)
03.03.2016 09:40 3,2 C 78 % 1000,0 hPa 0,0 l/m 4,1 km/h (1 Bft) W-SW 238 0 min 0,000 mm 0,7 UV-I 176 W/m -0,3 C 3,2 C 14,5 km/h (3 Bft)
03.03.2016 09:45 3,3 C 79 % 1000,0 hPa 0,0 l/m 3,4 km/h (1 Bft) S-SW 213 0 min 0,000 mm 0,7 UV-I 167 W/m 0,0 C 3,3 C 12,9 km/h (3 Bft)
03.03.2016 09:50 3,3 C 80 % 999,9 hPa 0,0 l/m 3,7 km/h (1 Bft) S-SW 199 0 min 0,000 mm 0,6 UV-I 143 W/m 0,2 C 3,3 C 20,9 km/h (4 Bft)
03.03.2016 09:55 3,2 C 80 % 1000,0 hPa 0,0 l/m 1,6 km/h (1 Bft) S-SW 211 0 min 0,000 mm 0,7 UV-I 135 W/m 0,1 C 3,2 C 14,5 km/h (3 Bft)
03.03.2016 10:00 3,2 C 81 % 1000,0 hPa 0,0 l/m 1,0 km/h (0 Bft) S 187 0 min 0,000 mm 0,7 UV-I 138 W/m 0,3 C 3,2 C 8,0 km/h (2 Bft)
03.03.2016 10:05 3,2 C 81 % 1000,1 hPa 0,0 l/m 0,0 km/h (0 Bft) W-NW 284 0 min 0,076 mm 0,7 UV-I 135 W/m 0,3 C 3,2 C 1,6 km/h (1 Bft)
03.03.2016 10:10 3,3 C 81 % 1000,1 hPa 0,0 l/m 0,0 km/h (0 Bft) S 171 0 min 0,000 mm 0,6 UV-I 117 W/m 0,4 C 3,3 C 1,6 km/h (1 Bft)
03.03.2016 10:15 3,4 C 81 % 1000,1 hPa 0,0 l/m 0,0 km/h (0 Bft) SO 145 0 min 0,000 mm 0,7 UV-I 126 W/m 0,5 C 3,4 C 0,0 km/h (0 Bft)
03.03.2016 10:20 3,4 C 80 % 1000,1 hPa 0,0 l/m 3,5 km/h (1 Bft) O 87 0 min 0,000 mm 0,7 UV-I 133 W/m 0,3 C 3,4 C 12,9 km/h (3 Bft)
03.03.2016 10:25 3,2 C 81 % 1000,1 hPa 0,0 l/m 5,3 km/h (1 Bft) S-SO 153 0 min 0,000 mm 0,7 UV-I 145 W/m 0,3 C 3,2 C 20,9 km/h (4 Bft)
03.03.2016 10:30 3,2 C 81 % 1000,0 hPa 0,0 l/m 5,3 km/h (1 Bft) O-SO 104 0 min 0,000 mm 0,8 UV-I 143 W/m 0,3 C 3,2 C 14,5 km/h (3 Bft)
03.03.2016 10:35 3,1 C 81 % 1000,0 hPa 0,0 l/m 6,9 km/h (2 Bft) S-SW 205 0 min 0,000 mm 0,8 UV-I 137 W/m 0,2 C 2,6 C 16,1 km/h (3 Bft)
03.03.2016 10:40 3,2 C 82 % 1000,0 hPa 0,0 l/m 1,7 km/h (1 Bft) O-NO 73 0 min 0,000 mm 0,8 UV-I 127 W/m 0,4 C 3,2 C 11,3 km/h (2 Bft)
03.03.2016 10:45 3,1 C 82 % 1000,0 hPa 0,0 l/m 8,6 km/h (2 Bft) S 180 0 min 0,000 mm 0,7 UV-I 112 W/m 0,3 C 1,1 C 16,1 km/h (3 Bft)
03.03.2016 10:50 3,1 C 83 % 1000,0 hPa 0,0 l/m 4,7 km/h (1 Bft) SO 144 0 min 0,000 mm 0,6 UV-I 97 W/m 0,5 C 3,1 C 12,9 km/h (3 Bft)
03.03.2016 10:55 3,0 C 83 % 999,9 hPa 0,0 l/m 3,7 km/h (1 Bft) S 183 0 min 0,000 mm 0,7 UV-I 119 W/m 0,4 C 3,0 C 14,5 km/h (3 Bft)
03.03.2016 11:00 3,1 C 83 % 999,9 hPa 0,0 l/m 0,5 km/h (0 Bft) O 92 0 min 0,000 mm 0,8 UV-I 139 W/m 0,5 C 3,1 C 8,0 km/h (2 Bft)
03.03.2016 11:05 3,1 C 82 % 999,9 hPa 0,0 l/m 3,6 km/h (1 Bft) O-SO 115 0 min 0,051 mm 0,8 UV-I 129 W/m 0,3 C 3,1 C 14,5 km/h (3 Bft)
03.03.2016 11:10 3,1 C 82 % 1000,0 hPa 0,0 l/m 4,6 km/h (1 Bft) O-SO 109 0 min 0,000 mm 0,8 UV-I 124 W/m 0,3 C 3,1 C 11,3 km/h (2 Bft)
03.03.2016 11:15 3,0 C 82 % 1000,1 hPa 0,0 l/m 5,0 km/h (1 Bft) SO 124 0 min 0,000 mm 0,6 UV-I 84 W/m 0,2 C 3,0 C 12,9 km/h (3 Bft)
03.03.2016 11:20 3,1 C 83 % 1000,2 hPa 0,0 l/m 3,8 km/h (1 Bft) O-SO 115 0 min 0,000 mm 0,5 UV-I 59 W/m 0,5 C 3,1 C 11,3 km/h (2 Bft)
03.03.2016 11:25 3,1 C 83 % 1000,1 hPa 0,0 l/m 1,5 km/h (1 Bft) S-SO 157 0 min 0,000 mm 0,5 UV-I 67 W/m 0,5 C 3,1 C 9,7 km/h (2 Bft)
03.03.2016 11:30 3,1 C 82 % 1000,2 hPa 0,0 l/m 2,6 km/h (1 Bft) SO 146 0 min 0,000 mm 0,3 UV-I 57 W/m 0,3 C 3,1 C 11,3 km/h (2 Bft)
03.03.2016 11:35 3,1 C 82 % 1000,2 hPa 0,0 l/m 0,0 km/h (0 Bft) S-SW 204 0 min 0,000 mm 0,0 UV-I 48 W/m 0,3 C 3,1 C 0,0 km/h (0 Bft)
03.03.2016 11:40 3,1 C 83 % 1000,2 hPa 0,0 l/m 0,0 km/h (0 Bft) SO 132 0 min 0,000 mm 0,0 UV-I 44 W/m 0,5 C 3,1 C 0,0 km/h (0 Bft)
03.03.2016 11:45 3,2 C 83 % 1000,2 hPa 0,0 l/m 0,0 km/h (0 Bft) O 101 0 min 0,000 mm 0,0 UV-I 50 W/m 0,6 C 3,2 C 1,6 km/h (1 Bft)
03.03.2016 11:50 3,2 C 83 % 1000,2 hPa 0,0 l/m 3,0 km/h (1 Bft) O-NO 77 0 min 0,000 mm 0,0 UV-I 50 W/m 0,6 C 3,2 C 11,3 km/h (2 Bft)
03.03.2016 11:55 3,1 C 83 % 1000,2 hPa 0,0 l/m 0,0 km/h (0 Bft) O 96 0 min 0,000 mm 0,0 UV-I 44 W/m 0,5 C 3,1 C 0,0 km/h (0 Bft)
03.03.2016 12:00 3,1 C 83 % 1000,3 hPa 0,0 l/m 0,0 km/h (0 Bft) NO 49 0 min 0,000 mm 0,0 UV-I 45 W/m 0,5 C 3,1 C 0,0 km/h (0 Bft)
03.03.2016 12:05 3,1 C 84 % 1000,4 hPa 0,0 l/m 0,0 km/h (0 Bft) O 88 0 min 0,026 mm 0,0 UV-I 44 W/m 0,7 C 3,1 C 0,0 km/h (0 Bft)
03.03.2016 12:10 3,1 C 85 % 1000,4 hPa 0,0 l/m 0,0 km/h (0 Bft) O 96 0 min 0,000 mm 0,0 UV-I 44 W/m 0,8 C 3,1 C 0,0 km/h (0 Bft)
03.03.2016 12:15 3,1 C 84 % 1000,5 hPa 0,0 l/m 0,0 km/h (0 Bft) O 88 0 min 0,000 mm 0,0 UV-I 46 W/m 0,7 C 3,1 C 0,0 km/h (0 Bft)
03.03.2016 12:20 3,1 C 84 % 1000,5 hPa 0,0 l/m 0,0 km/h (0 Bft) O-SO 114 0 min 0,000 mm 0,0 UV-I 47 W/m 0,7 C 3,1 C 0,0 km/h (0 Bft)
03.03.2016 12:25 3,1 C 84 % 1000,5 hPa 0,0 l/m 0,0 km/h (0 Bft) S 191 0 min 0,000 mm 0,0 UV-I 43 W/m 0,7 C 3,1 C 1,6 km/h (1 Bft)
03.03.2016 12:30 3,2 C 83 % 1000,5 hPa 0,0 l/m 1,2 km/h (1 Bft) SO 130 0 min 0,000 mm 0,0 UV-I 43 W/m 0,6 C 3,2 C 8,0 km/h (2 Bft)
03.03.2016 12:35 3,2 C 83 % 1000,6 hPa 0,0 l/m 0,0 km/h (0 Bft) O-SO 116 0 min 0,000 mm 0,0 UV-I 47 W/m 0,6 C 3,2 C 0,0 km/h (0 Bft)
03.03.2016 12:40 3,2 C 83 % 1000,6 hPa 0,0 l/m 0,0 km/h (0 Bft) S-SO 161 0 min 0,000 mm 0,0 UV-I 49 W/m 0,6 C 3,2 C 0,0 km/h (0 Bft)
03.03.2016 12:45 3,3 C 82 % 1000,7 hPa 0,0 l/m 0,5 km/h (0 Bft) SO 140 0 min 0,000 mm 0,0 UV-I 43 W/m 0,5 C 3,3 C 8,0 km/h (2 Bft)
03.03.2016 12:50 3,2 C 82 % 1000,8 hPa 0,0 l/m 0,0 km/h (0 Bft) S-SO 162 0 min 0,000 mm 0,0 UV-I 44 W/m 0,4 C 3,2 C 0,0 km/h (0 Bft)
03.03.2016 12:55 3,2 C 82 % 1000,8 hPa 0,0 l/m 0,0 km/h (0 Bft) S 189 0 min 0,000 mm 0,0 UV-I 42 W/m 0,4 C 3,2 C 0,0 km/h (0 Bft)
03.03.2016 13:00 3,3 C 83 % 1000,9 hPa 0,0 l/m 0,0 km/h (0 Bft) S-SW 205 0 min 0,000 mm 0,0 UV-I 43 W/m 0,7 C 3,3 C 0,0 km/h (0 Bft)
03.03.2016 13:05 3,3 C 83 % 1000,9 hPa 0,0 l/m 0,0 km/h (0 Bft) W 270 0 min 0,025 mm 0,0 UV-I 48 W/m 0,7 C 3,3 C 1,6 km/h (1 Bft)
03.03.2016 13:10 3,3 C 84 % 1000,9 hPa 0,0 l/m 0,0 km/h (0 Bft) S-SO 165 0 min 0,000 mm 0,1 UV-I 54 W/m 0,9 C 3,3 C 0,0 km/h (0 Bft)
03.03.2016 13:15 3,3 C 84 % 1001,0 hPa 0,0 l/m 0,0 km/h (0 Bft) W-NW 284 0 min 0,000 mm 0,5 UV-I 61 W/m 0,9 C 3,3 C 0,0 km/h (0 Bft)
03.03.2016 13:20 3,3 C 86 % 1001,1 hPa 0,0 l/m 0,0 km/h (0 Bft) W-NW 302 0 min 0,000 mm 0,5 UV-I 62 W/m 1,2 C 3,3 C 0,0 km/h (0 Bft)
03.03.2016 13:25 3,2 C 86 % 1001,2 hPa 0,0 l/m 0,0 km/h (0 Bft) W-NW 302 0 min 0,000 mm 0,5 UV-I 58 W/m 1,1 C 3,2 C 0,0 km/h (0 Bft)
03.03.2016 13:30 3,2 C 88 % 1001,2 hPa 0,0 l/m 0,0 km/h (0 Bft) W-NW 302 0 min 0,000 mm 0,0 UV-I 53 W/m 1,4 C 3,2 C 0,0 km/h (0 Bft)
03.03.2016 13:35 3,1 C 89 % 1001,3 hPa 0,0 l/m 0,0 km/h (0 Bft) W-NW 302 0 min 0,000 mm 0,0 UV-I 51 W/m 1,5 C 3,1 C 0,0 km/h (0 Bft)
03.03.2016 13:40 3,0 C 90 % 1001,3 hPa 0,0 l/m 0,0 km/h (0 Bft) W-NW 302 0 min 0,000 mm 0,0 UV-I 50 W/m 1,5 C 3,0 C 0,0 km/h (0 Bft)
03.03.2016 13:45 3,0 C 90 % 1001,2 hPa 0,0 l/m 0,0 km/h (0 Bft) W-NW 302 0 min 0,000 mm 0,0 UV-I 47 W/m 1,5 C 3,0 C 0,0 km/h (0 Bft)
03.03.2016 13:50 3,1 C 91 % 1001,3 hPa 0,0 l/m 0,0 km/h (0 Bft) W-NW 302 0 min 0,000 mm 0,0 UV-I 46 W/m 1,8 C 3,1 C 0,0 km/h (0 Bft)
03.03.2016 13:55 3,2 C 91 % 1001,3 hPa 0,0 l/m 0,0 km/h (0 Bft) W-NW 302 0 min 0,000 mm 0,0 UV-I 45 W/m 1,9 C 3,2 C 0,0 km/h (0 Bft)
03.03.2016 14:00 3,2 C 90 % 1001,3 hPa 0,0 l/m 0,0 km/h (0 Bft) W-NW 302 0 min 0,000 mm 0,0 UV-I 46 W/m 1,7 C 3,2 C 0,0 km/h (0 Bft)
03.03.2016 14:05 3,2 C 91 % 1001,3 hPa 0,2 l/m 0,0 km/h (0 Bft) W-NW 302 0 min 0,025 mm 0,0 UV-I 44 W/m 1,9 C 3,2 C 0,0 km/h (0 Bft)
03.03.2016 14:10 3,2 C 90 % 1001,4 hPa 0,0 l/m 0,0 km/h (0 Bft) W-NW 302 0 min 0,000 mm 0,0 UV-I 40 W/m 1,7 C 3,2 C 0,0 km/h (0 Bft)
03.03.2016 14:15 3,2 C 91 % 1001,4 hPa 0,0 l/m 0,0 km/h (0 Bft) W-NW 302 0 min 0,000 mm 0,0 UV-I 38 W/m 1,9 C 3,2 C 0,0 km/h (0 Bft)
03.03.2016 14:20 3,2 C 91 % 1001,4 hPa 0,0 l/m 0,0 km/h (0 Bft) W-NW 302 0 min 0,000 mm 0,0 UV-I 47 W/m 1,9 C 3,2 C 0,0 km/h (0 Bft)
03.03.2016 14:25 3,2 C 92 % 1001,4 hPa 0,0 l/m 0,0 km/h (0 Bft) W-NW 302 0 min 0,000 mm 0,3 UV-I 61 W/m 2,0 C 3,2 C 0,0 km/h (0 Bft)
03.03.2016 14:30 3,2 C 92 % 1001,4 hPa 0,0 l/m 0,0 km/h (0 Bft) W-NW 302 0 min 0,000 mm 0,0 UV-I 55 W/m 2,0 C 3,2 C 0,0 km/h (0 Bft)
03.03.2016 14:35 3,3 C 92 % 1001,5 hPa 0,0 l/m 0,0 km/h (0 Bft) W-NW 302 0 min 0,000 mm 0,4 UV-I 58 W/m 2,1 C 3,3 C 0,0 km/h (0 Bft)
03.03.2016 14:40 3,3 C 91 % 1001,6 hPa 0,0 l/m 0,0 km/h (0 Bft) W-NW 302 0 min 0,000 mm 0,0 UV-I 49 W/m 2,0 C 3,3 C 0,0 km/h (0 Bft)
03.03.2016 14:45 3,4 C 92 % 1001,5 hPa 0,0 l/m 0,0 km/h (0 Bft) W-NW 302 0 min 0,000 mm 0,0 UV-I 41 W/m 2,2 C 3,4 C 0,0 km/h (0 Bft)
03.03.2016 14:50 3,4 C 92 % 1001,6 hPa 0,0 l/m 0,0 km/h (0 Bft) W-NW 302 0 min 0,000 mm 0,0 UV-I 37 W/m 2,2 C 3,4 C 0,0 km/h (0 Bft)
03.03.2016 14:55 3,4 C 91 % 1001,7 hPa 0,0 l/m 0,0 km/h (0 Bft) W-NW 302 0 min 0,000 mm 0,0 UV-I 39 W/m 2,1 C 3,4 C 0,0 km/h (0 Bft)
03.03.2016 15:00 3,4 C 91 % 1001,7 hPa 0,0 l/m 0,0 km/h (0 Bft) W-NW 302 0 min 0,000 mm 0,0 UV-I 49 W/m 2,1 C 3,4 C 0,0 km/h (0 Bft)
03.03.2016 15:05 3,4 C 91 % 1001,7 hPa 0,0 l/m 0,0 km/h (0 Bft) W-NW 302 0 min 0,026 mm 0,0 UV-I 67 W/m 2,1 C 3,4 C 0,0 km/h (0 Bft)
03.03.2016 15:10 3,5 C 91 % 1001,7 hPa 0,0 l/m 0,0 km/h (0 Bft) W-NW 302 0 min 0,000 mm 0,0 UV-I 66 W/m 2,2 C 3,5 C 0,0 km/h (0 Bft)
03.03.2016 15:15 3,5 C 91 % 1001,8 hPa 0,0 l/m 0,0 km/h (0 Bft) W-NW 302 0 min 0,000 mm 0,0 UV-I 59 W/m 2,2 C 3,5 C 0,0 km/h (0 Bft)
03.03.2016 15:20 3,6 C 91 % 1001,9 hPa 0,0 l/m 0,0 km/h (0 Bft) W-NW 302 0 min 0,000 mm 0,0 UV-I 46 W/m 2,3 C 3,6 C 0,0 km/h (0 Bft)
03.03.2016 15:25 3,6 C 90 % 1001,9 hPa 0,0 l/m 0,0 km/h (0 Bft) W-NW 302 0 min 0,000 mm 0,0 UV-I 50 W/m 2,1 C 3,6 C 0,0 km/h (0 Bft)
03.03.2016 15:30 3,6 C 90 % 1002,0 hPa 0,0 l/m 0,0 km/h (0 Bft) W-NW 302 0 min 0,000 mm 0,0 UV-I 56 W/m 2,1 C 3,6 C 0,0 km/h (0 Bft)
03.03.2016 15:35 3,6 C 90 % 1002,1 hPa 0,0 l/m 0,0 km/h (0 Bft) W-NW 302 0 min 0,000 mm 0,0 UV-I 57 W/m 2,1 C 3,6 C 0,0 km/h (0 Bft)
03.03.2016 15:40 3,6 C 90 % 1002,2 hPa 0,0 l/m 0,0 km/h (0 Bft) W-NW 302 0 min 0,000 mm 0,0 UV-I 59 W/m 2,1 C 3,6 C 0,0 km/h (0 Bft)
03.03.2016 15:45 3,6 C 89 % 1002,2 hPa 0,0 l/m 0,0 km/h (0 Bft) W-NW 302 0 min 0,000 mm 0,0 UV-I 68 W/m 2,0 C 3,6 C 0,0 km/h (0 Bft)
03.03.2016 15:50 3,6 C 89 % 1002,2 hPa 0,0 l/m 0,0 km/h (0 Bft) W-NW 302 0 min 0,000 mm 0,0 UV-I 71 W/m 2,0 C 3,6 C 0,0 km/h (0 Bft)
03.03.2016 15:55 3,7 C 90 % 1002,3 hPa 0,0 l/m 0,0 km/h (0 Bft) W-NW 302 0 min 0,000 mm 0,0 UV-I 61 W/m 2,2 C 3,7 C 0,0 km/h (0 Bft)
03.03.2016 16:00 3,7 C 90 % 1002,4 hPa 0,0 l/m 0,0 km/h (0 Bft) W-NW 302 0 min 0,000 mm 0,0 UV-I 41 W/m 2,2 C 3,7 C 0,0 km/h (0 Bft)
03.03.2016 16:05 3,8 C 90 % 1002,5 hPa 0,0 l/m 0,0 km/h (0 Bft) W-NW 302 0 min 0,025 mm 0,0 UV-I 40 W/m 2,3 C 3,8 C 0,0 km/h (0 Bft)
03.03.2016 16:10 3,8 C 89 % 1002,5 hPa 0,0 l/m 0,0 km/h (0 Bft) W-NW 302 0 min 0,000 mm 0,0 UV-I 45 W/m 2,2 C 3,8 C 0,0 km/h (0 Bft)
03.03.2016 16:15 3,8 C 89 % 1002,6 hPa 0,0 l/m 0,0 km/h (0 Bft) W-NW 302 0 min 0,000 mm 0,0 UV-I 43 W/m 2,2 C 3,8 C 0,0 km/h (0 Bft)
03.03.2016 16:20 3,7 C 89 % 1002,7 hPa 0,0 l/m 0,0 km/h (0 Bft) W-NW 302 0 min 0,000 mm 0,0 UV-I 48 W/m 2,1 C 3,7 C 0,0 km/h (0 Bft)
03.03.2016 16:25 3,8 C 89 % 1002,7 hPa 0,0 l/m 0,0 km/h (0 Bft) W-NW 302 0 min 0,000 mm 0,0 UV-I 44 W/m 2,2 C 3,8 C 0,0 km/h (0 Bft)
03.03.2016 16:30 3,8 C 89 % 1002,7 hPa 0,0 l/m 0,0 km/h (0 Bft) W-NW 302 0 min 0,000 mm 0,0 UV-I 44 W/m 2,2 C 3,8 C 0,0 km/h (0 Bft)
03.03.2016 16:35 3,8 C 89 % 1002,8 hPa 0,0 l/m 0,0 km/h (0 Bft) W-NW 302 0 min 0,000 mm 0,0 UV-I 42 W/m 2,2 C 3,8 C 0,0 km/h (0 Bft)
03.03.2016 16:40 3,8 C 89 % 1002,8 hPa 0,0 l/m 0,0 km/h (0 Bft) W-NW 302 0 min 0,000 mm 0,0 UV-I 34 W/m 2,2 C 3,8 C 0,0 km/h (0 Bft)
03.03.2016 16:45 3,8 C 89 % 1002,8 hPa 0,0 l/m 0,0 km/h (0 Bft) W-NW 302 0 min 0,000 mm 0,0 UV-I 32 W/m 2,2 C 3,8 C 0,0 km/h (0 Bft)
03.03.2016 16:50 3,7 C 89 % 1002,9 hPa 0,0 l/m 0,0 km/h (0 Bft) W-NW 302 0 min 0,000 mm 0,0 UV-I 25 W/m 2,1 C 3,7 C 0,0 km/h (0 Bft)
03.03.2016 16:55 3,8 C 89 % 1003,0 hPa 0,0 l/m 0,0 km/h (0 Bft) W-NW 302 0 min 0,000 mm 0,0 UV-I 19 W/m 2,2 C 3,8 C 0,0 km/h (0 Bft)
03.03.2016 17:00 3,7 C 89 % 1003,1 hPa 0,0 l/m 0,0 km/h (0 Bft) W-NW 302 0 min 0,000 mm 0,0 UV-I 19 W/m 2,1 C 3,7 C 0,0 km/h (0 Bft)
03.03.2016 17:05 3,7 C 89 % 1003,1 hPa 0,0 l/m 0,0 km/h (0 Bft) W-NW 302 0 min 0,026 mm 0,0 UV-I 25 W/m 2,1 C 3,7 C 0,0 km/h (0 Bft)
03.03.2016 17:10 3,7 C 89 % 1003,2 hPa 0,0 l/m 0,0 km/h (0 Bft) W-NW 302 0 min 0,000 mm 0,0 UV-I 33 W/m 2,1 C 3,7 C 0,0 km/h (0 Bft)
03.03.2016 17:15 3,8 C 90 % 1003,2 hPa 0,0 l/m 0,0 km/h (0 Bft) W-NW 302 0 min 0,000 mm 0,0 UV-I 37 W/m 2,3 C 3,8 C 0,0 km/h (0 Bft)
03.03.2016 17:20 3,8 C 90 % 1003,4 hPa 0,0 l/m 0,0 km/h (0 Bft) W-NW 302 0 min 0,000 mm 0,0 UV-I 42 W/m 2,3 C 3,8 C 0,0 km/h (0 Bft)
03.03.2016 17:25 3,8 C 90 % 1003,3 hPa 0,0 l/m 0,0 km/h (0 Bft) W-NW 302 0 min 0,000 mm 0,0 UV-I 29 W/m 2,3 C 3,8 C 0,0 km/h (0 Bft)
03.03.2016 17:30 3,8 C 89 % 1003,4 hPa 0,0 l/m 0,0 km/h (0 Bft) W-NW 302 0 min 0,000 mm 0,0 UV-I 26 W/m 2,2 C 3,8 C 0,0 km/h (0 Bft)
03.03.2016 17:35 3,7 C 89 % 1003,4 hPa 0,0 l/m 0,0 km/h (0 Bft) W-NW 302 0 min 0,000 mm 0,0 UV-I 25 W/m 2,1 C 3,7 C 0,0 km/h (0 Bft)
03.03.2016 17:40 3,7 C 90 % 1003,5 hPa 0,0 l/m 0,0 km/h (0 Bft) W-NW 302 0 min 0,000 mm 0,0 UV-I 25 W/m 2,2 C 3,7 C 0,0 km/h (0 Bft)
03.03.2016 17:45 3,7 C 90 % 1003,7 hPa 0,0 l/m 0,0 km/h (0 Bft) W-NW 302 0 min 0,000 mm 0,0 UV-I 25 W/m 2,2 C 3,7 C 0,0 km/h (0 Bft)
03.03.2016 17:50 3,6 C 90 % 1003,8 hPa 0,0 l/m 0,0 km/h (0 Bft) W-NW 302 0 min 0,000 mm 0,0 UV-I 21 W/m 2,1 C 3,6 C 0,0 km/h (0 Bft)
03.03.2016 17:55 3,6 C 90 % 1003,8 hPa 0,0 l/m 0,0 km/h (0 Bft) W-NW 302 0 min 0,000 mm 0,0 UV-I 15 W/m 2,1 C 3,6 C 0,0 km/h (0 Bft)
03.03.2016 18:00 3,4 C 90 % 1003,9 hPa 0,0 l/m 0,0 km/h (0 Bft) W-NW 302 5 min 0,000 mm 0,0 UV-I 11 W/m 1,9 C 3,4 C 0,0 km/h (0 Bft)
03.03.2016 18:05 3,3 C 91 % 1004,0 hPa 0,0 l/m 0,0 km/h (0 Bft) W-NW 302 0 min 0,000 mm 0,0 UV-I 8 W/m 2,0 C 3,3 C 0,0 km/h (0 Bft)
03.03.2016 18:10 3,2 C 91 % 1004,1 hPa 0,0 l/m 0,0 km/h (0 Bft) W-NW 302 0 min 0,000 mm 0,0 UV-I 3 W/m 1,9 C 3,2 C 0,0 km/h (0 Bft)
03.03.2016 18:15 3,2 C 91 % 1004,2 hPa 0,0 l/m 0,0 km/h (0 Bft) W-NW 302 0 min 0,000 mm 0,0 UV-I 0 W/m 1,9 C 3,2 C 0,0 km/h (0 Bft)
03.03.2016 18:20 3,1 C 91 % 1004,3 hPa 0,0 l/m 0,0 km/h (0 Bft) W-NW 302 0 min 0,000 mm 0,0 UV-I 0 W/m 1,8 C 3,1 C 0,0 km/h (0 Bft)
03.03.2016 18:25 2,9 C 91 % 1004,4 hPa 0,0 l/m 0,0 km/h (0 Bft) W-NW 302 0 min 0,000 mm 0,0 UV-I 0 W/m 1,6 C 2,9 C 0,0 km/h (0 Bft)
03.03.2016 18:30 2,8 C 91 % 1004,5 hPa 0,0 l/m 0,0 km/h (0 Bft) W-NW 302 0 min 0,000 mm 0,0 UV-I 0 W/m 1,5 C 2,8 C 0,0 km/h (0 Bft)
03.03.2016 18:35 2,7 C 91 % 1004,5 hPa 0,0 l/m 0,0 km/h (0 Bft) W-NW 302 0 min 0,000 mm 0,0 UV-I 0 W/m 1,4 C 2,7 C 0,0 km/h (0 Bft)
03.03.2016 18:40 2,7 C 91 % 1004,5 hPa 0,0 l/m 0,0 km/h (0 Bft) W-NW 302 0 min 0,000 mm 0,0 UV-I 0 W/m 1,4 C 2,7 C 0,0 km/h (0 Bft)
03.03.2016 18:45 2,6 C 92 % 1004,6 hPa 0,0 l/m 0,0 km/h (0 Bft) W-NW 301 0 min 0,000 mm 0,0 UV-I 0 W/m 1,4 C 2,6 C 0,0 km/h (0 Bft)
03.03.2016 18:50 2,4 C 92 % 1004,8 hPa 0,0 l/m 0,0 km/h (0 Bft) W-NW 301 0 min 0,000 mm 0,0 UV-I 0 W/m 1,2 C 2,4 C 0,0 km/h (0 Bft)
03.03.2016 18:55 2,3 C 92 % 1004,8 hPa 0,0 l/m 0,0 km/h (0 Bft) W-NW 301 0 min 0,000 mm 0,0 UV-I 0 W/m 1,1 C 2,3 C 0,0 km/h (0 Bft)
03.03.2016 19:00 2,2 C 92 % 1004,9 hPa 0,0 l/m 0,0 km/h (0 Bft) W-NW 301 0 min 0,000 mm 0,0 UV-I 0 W/m 1,0 C 2,2 C 0,0 km/h (0 Bft)
03.03.2016 19:05 2,1 C 92 % 1004,9 hPa 0,0 l/m 0,0 km/h (0 Bft) W-NW 301 0 min 0,000 mm 0,0 UV-I 0 W/m 0,9 C 2,1 C 0,0 km/h (0 Bft)
03.03.2016 19:10 2,0 C 92 % 1005,0 hPa 0,0 l/m 0,0 km/h (0 Bft) W-NW 301 0 min 0,000 mm 0,0 UV-I 0 W/m 0,8 C 2,0 C 0,0 km/h (0 Bft)
03.03.2016 19:15 1,9 C 93 % 1005,1 hPa 0,0 l/m 0,0 km/h (0 Bft) W-NW 301 0 min 0,000 mm 0,0 UV-I 0 W/m 0,9 C 1,9 C 0,0 km/h (0 Bft)
03.03.2016 19:20 1,9 C 93 % 1005,1 hPa 0,0 l/m 0,0 km/h (0 Bft) W-NW 301 0 min 0,000 mm 0,0 UV-I 0 W/m 0,9 C 1,9 C 0,0 km/h (0 Bft)
03.03.2016 19:25 1,8 C 93 % 1005,1 hPa 0,0 l/m 0,0 km/h (0 Bft) W-NW 301 0 min 0,000 mm 0,0 UV-I 0 W/m 0,8 C 1,8 C 0,0 km/h (0 Bft)
03.03.2016 19:30 1,7 C 92 % 1005,1 hPa 0,0 l/m 0,0 km/h (0 Bft) W-NW 301 0 min 0,000 mm 0,0 UV-I 0 W/m 0,5 C 1,7 C 0,0 km/h (0 Bft)
03.03.2016 19:35 1,6 C 93 % 1005,2 hPa 0,0 l/m 0,0 km/h (0 Bft) W-NW 301 0 min 0,000 mm 0,0 UV-I 0 W/m 0,6 C 1,6 C 0,0 km/h (0 Bft)
03.03.2016 19:40 1,4 C 92 % 1005,2 hPa 0,0 l/m 0,0 km/h (0 Bft) W-NW 301 0 min 0,000 mm 0,0 UV-I 0 W/m 0,2 C 1,4 C 0,0 km/h (0 Bft)
03.03.2016 19:45 1,3 C 92 % 1005,2 hPa 0,0 l/m 0,0 km/h (0 Bft) W-NW 301 0 min 0,000 mm 0,0 UV-I 0 W/m 0,1 C 1,3 C 0,0 km/h (0 Bft)
03.03.2016 19:50 1,2 C 92 % 1005,4 hPa 0,0 l/m 0,0 km/h (0 Bft) W-NW 301 0 min 0,000 mm 0,0 UV-I 0 W/m 0,0 C 1,2 C 0,0 km/h (0 Bft)
03.03.2016 19:55 1,0 C 92 % 1005,4 hPa 0,0 l/m 0,0 km/h (0 Bft) W-NW 301 0 min 0,000 mm 0,0 UV-I 0 W/m -0,2 C 1,0 C 0,0 km/h (0 Bft)
03.03.2016 20:00 0,8 C 92 % 1005,4 hPa 0,0 l/m 0,0 km/h (0 Bft) W-NW 301 0 min 0,000 mm 0,0 UV-I 0 W/m -0,3 C 0,8 C 0,0 km/h (0 Bft)
03.03.2016 20:05 0,7 C 92 % 1005,5 hPa 0,0 l/m 0,0 km/h (0 Bft) W-NW 301 0 min 0,000 mm 0,0 UV-I 0 W/m -0,4 C 0,7 C 0,0 km/h (0 Bft)
03.03.2016 20:10 0,7 C 92 % 1005,6 hPa 0,0 l/m 0,0 km/h (0 Bft) W-NW 301 0 min 0,000 mm 0,0 UV-I 0 W/m -0,4 C 0,7 C 0,0 km/h (0 Bft)
03.03.2016 20:15 0,6 C 93 % 1005,7 hPa 0,0 l/m 0,0 km/h (0 Bft) W-NW 301 0 min 0,000 mm 0,0 UV-I 0 W/m -0,4 C 0,6 C 0,0 km/h (0 Bft)
03.03.2016 20:20 0,4 C 92 % 1005,8 hPa 0,0 l/m 0,0 km/h (0 Bft) W-NW 301 0 min 0,000 mm 0,0 UV-I 0 W/m -0,7 C 0,4 C 0,0 km/h (0 Bft)
03.03.2016 20:25 0,3 C 92 % 1005,8 hPa 0,0 l/m 0,0 km/h (0 Bft) W-NW 301 0 min 0,000 mm 0,0 UV-I 0 W/m -0,8 C 0,3 C 0,0 km/h (0 Bft)
03.03.2016 20:30 0,2 C 92 % 1005,9 hPa 0,0 l/m 0,0 km/h (0 Bft) W-NW 301 0 min 0,000 mm 0,0 UV-I 0 W/m -0,9 C 0,2 C 0,0 km/h (0 Bft)
03.03.2016 20:35 0,2 C 93 % 1005,9 hPa 0,0 l/m 0,0 km/h (0 Bft) W-NW 301 0 min 0,000 mm 0,0 UV-I 0 W/m -0,8 C 0,2 C 0,0 km/h (0 Bft)
03.03.2016 20:40 0,1 C 93 % 1006,0 hPa 0,0 l/m 0,0 km/h (0 Bft) W-NW 301 0 min 0,000 mm 0,0 UV-I 0 W/m -0,9 C 0,1 C 0,0 km/h (0 Bft)
03.03.2016 20:45 0,1 C 93 % 1006,0 hPa 0,0 l/m 0,0 km/h (0 Bft) W-NW 301 0 min 0,000 mm 0,0 UV-I 0 W/m -0,9 C 0,1 C 0,0 km/h (0 Bft)
03.03.2016 20:50 -0,1 C 93 % 1006,1 hPa 0,0 l/m 0,0 km/h (0 Bft) W-NW 301 0 min 0,000 mm 0,0 UV-I 0 W/m -1,1 C -0,1 C 0,0 km/h (0 Bft)
03.03.2016 20:55 -0,1 C 93 % 1006,2 hPa 0,0 l/m 0,0 km/h (0 Bft) W-NW 301 0 min 0,000 mm 0,0 UV-I 0 W/m -1,1 C -0,1 C 0,0 km/h (0 Bft)
03.03.2016 21:00 -0,1 C 94 % 1006,2 hPa 0,0 l/m 0,0 km/h (0 Bft) W-NW 301 0 min 0,000 mm 0,0 UV-I 0 W/m -0,9 C -0,1 C 0,0 km/h (0 Bft)
03.03.2016 21:05 -0,1 C 94 % 1006,2 hPa 0,0 l/m 0,0 km/h (0 Bft) W-NW 301 0 min 0,000 mm 0,0 UV-I 0 W/m -0,9 C -0,1 C 0,0 km/h (0 Bft)
03.03.2016 21:10 -0,1 C 94 % 1006,3 hPa 0,0 l/m 0,0 km/h (0 Bft) W-NW 301 0 min 0,000 mm 0,0 UV-I 0 W/m -0,9 C -0,1 C 0,0 km/h (0 Bft)
03.03.2016 21:15 0,0 C 94 % 1006,4 hPa 0,0 l/m 0,0 km/h (0 Bft) W-NW 301 0 min 0,000 mm 0,0 UV-I 0 W/m -0,8 C 0,0 C 0,0 km/h (0 Bft)
03.03.2016 21:20 0,0 C 94 % 1006,4 hPa 0,0 l/m 0,0 km/h (0 Bft) W-NW 301 0 min 0,000 mm 0,0 UV-I 0 W/m -0,8 C 0,0 C 0,0 km/h (0 Bft)
03.03.2016 21:25 0,0 C 94 % 1006,4 hPa 0,0 l/m 0,0 km/h (0 Bft) W-NW 301 0 min 0,000 mm 0,0 UV-I 0 W/m -0,8 C 0,0 C 0,0 km/h (0 Bft)
03.03.2016 21:30 -0,1 C 94 % 1006,5 hPa 0,0 l/m 0,0 km/h (0 Bft) W-NW 301 0 min 0,000 mm 0,0 UV-I 0 W/m -0,9 C -0,1 C 0,0 km/h (0 Bft)
03.03.2016 21:35 -0,1 C 94 % 1006,6 hPa 0,0 l/m 0,0 km/h (0 Bft) W-NW 301 0 min 0,000 mm 0,0 UV-I 0 W/m -0,9 C -0,1 C 0,0 km/h (0 Bft)
03.03.2016 21:40 -0,1 C 94 % 1006,6 hPa 0,0 l/m 0,0 km/h (0 Bft) W-NW 301 0 min 0,000 mm 0,0 UV-I 0 W/m -0,9 C -0,1 C 0,0 km/h (0 Bft)
03.03.2016 21:45 -0,1 C 94 % 1006,7 hPa 0,0 l/m 0,0 km/h (0 Bft) W-NW 301 0 min 0,000 mm 0,0 UV-I 0 W/m -0,9 C -0,1 C 0,0 km/h (0 Bft)
03.03.2016 21:50 -0,2 C 94 % 1006,7 hPa 0,0 l/m 0,0 km/h (0 Bft) W-NW 301 0 min 0,000 mm 0,0 UV-I 0 W/m -1,0 C -0,2 C 0,0 km/h (0 Bft)
03.03.2016 21:55 -0,3 C 94 % 1006,8 hPa 0,0 l/m 0,0 km/h (0 Bft) W-NW 301 0 min 0,000 mm 0,0 UV-I 0 W/m -1,1 C -0,3 C 0,0 km/h (0 Bft)
03.03.2016 22:00 -0,3 C 94 % 1006,8 hPa 0,0 l/m 0,0 km/h (0 Bft) W-NW 301 0 min 0,000 mm 0,0 UV-I 0 W/m -1,1 C -0,3 C 0,0 km/h (0 Bft)
03.03.2016 22:05 -0,3 C 95 % 1006,8 hPa 0,0 l/m 0,0 km/h (0 Bft) W-NW 301 0 min 0,000 mm 0,0 UV-I 0 W/m -1,0 C -0,3 C 0,0 km/h (0 Bft)
03.03.2016 22:10 -0,3 C 95 % 1006,8 hPa 0,0 l/m 0,0 km/h (0 Bft) W-NW 301 0 min 0,000 mm 0,0 UV-I 0 W/m -1,0 C -0,3 C 0,0 km/h (0 Bft)
03.03.2016 22:15 -0,3 C 95 % 1007,0 hPa 0,0 l/m 0,0 km/h (0 Bft) W-NW 301 0 min 0,000 mm 0,0 UV-I 0 W/m -1,0 C -0,3 C 0,0 km/h (0 Bft)
03.03.2016 22:20 -0,3 C 95 % 1007,0 hPa 0,0 l/m 0,0 km/h (0 Bft) W-NW 301 0 min 0,000 mm 0,0 UV-I 0 W/m -1,0 C -0,3 C 0,0 km/h (0 Bft)
03.03.2016 22:25 -0,4 C 95 % 1006,9 hPa 0,0 l/m 0,0 km/h (0 Bft) W-NW 301 0 min 0,000 mm 0,0 UV-I 0 W/m -1,1 C -0,4 C 0,0 km/h (0 Bft)
03.03.2016 22:30 -0,5 C 94 % 1006,9 hPa 0,0 l/m 0,0 km/h (0 Bft) W-NW 301 0 min 0,000 mm 0,0 UV-I 0 W/m -1,3 C -0,5 C 0,0 km/h (0 Bft)
03.03.2016 22:35 -0,6 C 94 % 1007,0 hPa 0,0 l/m 0,0 km/h (0 Bft) W-NW 301 0 min 0,000 mm 0,0 UV-I 0 W/m -1,4 C -0,6 C 0,0 km/h (0 Bft)
03.03.2016 22:40 -0,6 C 95 % 1006,9 hPa 0,0 l/m 0,0 km/h (0 Bft) W-NW 301 0 min 0,000 mm 0,0 UV-I 0 W/m -1,3 C -0,6 C 0,0 km/h (0 Bft)
03.03.2016 22:45 -0,6 C 95 % 1006,9 hPa 0,0 l/m 0,0 km/h (0 Bft) W-NW 301 0 min 0,000 mm 0,0 UV-I 0 W/m -1,3 C -0,6 C 0,0 km/h (0 Bft)
03.03.2016 22:50 -0,7 C 95 % 1006,9 hPa 0,0 l/m 0,0 km/h (0 Bft) W-NW 301 0 min 0,000 mm 0,0 UV-I 0 W/m -1,4 C -0,7 C 0,0 km/h (0 Bft)
03.03.2016 22:55 -0,8 C 94 % 1006,9 hPa 0,0 l/m 0,0 km/h (0 Bft) W-NW 301 0 min 0,000 mm 0,0 UV-I 0 W/m -1,6 C -0,8 C 0,0 km/h (0 Bft)
03.03.2016 23:00 -0,8 C 95 % 1007,0 hPa 0,0 l/m 0,0 km/h (0 Bft) W-NW 301 0 min 0,000 mm 0,0 UV-I 0 W/m -1,5 C -0,8 C 0,0 km/h (0 Bft)
03.03.2016 23:05 -0,8 C 95 % 1007,1 hPa 0,0 l/m 0,0 km/h (0 Bft) W-NW 301 0 min 0,000 mm 0,0 UV-I 0 W/m -1,5 C -0,8 C 0,0 km/h (0 Bft)
03.03.2016 23:10 -0,8 C 95 % 1007,1 hPa 0,0 l/m 0,0 km/h (0 Bft) W-NW 301 0 min 0,000 mm 0,0 UV-I 0 W/m -1,5 C -0,8 C 0,0 km/h (0 Bft)
03.03.2016 23:15 -0,8 C 95 % 1006,9 hPa 0,0 l/m 0,0 km/h (0 Bft) W-NW 301 0 min 0,000 mm 0,0 UV-I 0 W/m -1,5 C -0,8 C 0,0 km/h (0 Bft)
03.03.2016 23:20 -0,8 C 95 % 1007,0 hPa 0,0 l/m 0,0 km/h (0 Bft) W-NW 301 0 min 0,000 mm 0,0 UV-I 0 W/m -1,5 C -0,8 C 0,0 km/h (0 Bft)
03.03.2016 23:25 -0,9 C 95 % 1006,9 hPa 0,0 l/m 0,0 km/h (0 Bft) W-NW 301 0 min 0,000 mm 0,0 UV-I 0 W/m -1,6 C -0,9 C 0,0 km/h (0 Bft)
03.03.2016 23:30 -0,9 C 95 % 1006,9 hPa 0,0 l/m 0,0 km/h (0 Bft) W-NW 301 0 min 0,000 mm 0,0 UV-I 0 W/m -1,6 C -0,9 C 0,0 km/h (0 Bft)
03.03.2016 23:35 -1,1 C 95 % 1007,1 hPa 0,0 l/m 0,0 km/h (0 Bft) W-NW 301 0 min 0,000 mm 0,0 UV-I 0 W/m -1,8 C -1,1 C 0,0 km/h (0 Bft)
03.03.2016 23:40 -1,1 C 95 % 1007,1 hPa 0,0 l/m 0,0 km/h (0 Bft) W-NW 301 0 min 0,000 mm 0,0 UV-I 0 W/m -1,8 C -1,1 C 0,0 km/h (0 Bft)
03.03.2016 23:45 -1,2 C 95 % 1007,1 hPa 0,0 l/m 0,0 km/h (0 Bft) W-NW 301 0 min 0,000 mm 0,0 UV-I 0 W/m -1,9 C -1,2 C 0,0 km/h (0 Bft)
03.03.2016 23:50 -1,3 C 95 % 1007,1 hPa 0,0 l/m 0,0 km/h (0 Bft) W-NW 301 0 min 0,000 mm 0,0 UV-I 0 W/m -2,0 C -1,3 C 0,0 km/h (0 Bft)
03.03.2016 23:55 -1,3 C 95 % 1006,9 hPa 0,0 l/m 0,0 km/h (0 Bft) W-NW 301 0 min 0,000 mm 0,0 UV-I 0 W/m -2,0 C -1,3 C 0,0 km/h (0 Bft)
_ Min-Zeit 23:50 09:30 00:10 - 08:15 - - - - - - 23:50 02:50 08:20
Minimum _ -1,3 C 78 % 998,9 hPa - 0,0 km/h (0 Bft) - - - - - - -2,0 C -1,8 C 0,0 km/h (0 Bft)
_ Max-Zeit 16:05 22:05 23:05 14:05 02:50 - - 08:05 09:05 09:20 09:25 16:05 16:05 03:45
Maximum _ 3,8 C 95 % 1007,1 hPa 0,2 l/m 10,4 km/h
SO (2 Bft)
- - 5 min 0,076 mm 0,8 UV-I 356 W/m 2,3 C 3,8 C 24,1 km/h
SW (4 Bft)
Durchschnitt _ 2,1 C 88 % 1001,8 hPa #0,2 l/m 1,8 km/h (1 Bft) S-SW - #1:25 h #0,356 mm 0,6 UV-I 77 W/m 0,4 C 2,0 C 6,0 km/h (2 Bft)